| time (UTC) | temp F | wind direction | speed MPH | gust MPH | rain 1hr in | rain 24hr in | rain mn in | humidity % | barometer mb |
| 20260507151528 | 55 | 15 | 6.0 | 15.0 | 0.00 | 0.04 | 0.00 | 99 | 1020.8 |
| 20260507150530 | 55 | 28 | 4.0 | 10.0 | 0.00 | 0.12 | 0.00 | 99 | 1021.9 |
| 20260507145532 | 55 | 26 | 3.0 | 7.0 | 0.00 | 0.13 | 0.00 | 99 | 1021.5 |
| 20260507145513 | 54 | 23 | 3.0 | 5.0 | 0.00 | 0.13 | 0.00 | 98 | 1021.5 |
| 20260507144537 | 55 | 21 | 5.0 | 9.0 | 0.00 | 0.14 | 0.00 | 98 | 1021.4 |
| 20260507143518 | 55 | 26 | 3.0 | 8.0 | 0.00 | 0.14 | 0.00 | 98 | 1021.2 |
| 20260507142520 | 55 | 21 | 7.0 | 11.0 | 0.00 | 0.14 | 0.00 | 97 | 1020.9 |
| 20260507142513 | 55 | 50 | 5.0 | 8.0 | 0.00 | 0.13 | 0.00 | 97 | 1020.7 |
| 20260507141523 | 56 | 32 | 6.0 | 14.0 | 0.00 | 0.14 | 0.00 | 97 | 1020.6 |
| 20260507140520 | 56 | 23 | 9.0 | 14.0 | 0.00 | 0.14 | 0.00 | 97 | 1020.2 |
| 20260507135516 | 56 | 15 | 7.0 | 10.0 | 0.00 | 0.14 | 0.00 | 97 | 1020.8 |
| 20260507135513 | 55 | 21 | 7.0 | 12.0 | 0.00 | 0.15 | 0.00 | 98 | 1020.9 |
| 20260507134518 | 56 | 356 | 5.0 | 8.0 | 0.00 | 0.15 | 0.00 | 98 | 1020.6 |
| 20260507133515 | 56 | 24 | 6.0 | 8.0 | 0.00 | 0.15 | 0.00 | 98 | 1020.9 |
| 20260507132517 | 56 | 19 | 5.0 | 8.0 | 0.00 | 0.15 | 0.00 | 98 | 1020.9 |
| 20260507132513 | 56 | 38 | 2.0 | 6.0 | 0.00 | 0.15 | 0.00 | 98 | 1020.7 |
| 20260507131519 | 56 | 36 | 6.0 | 9.0 | 0.00 | 0.15 | 0.00 | 98 | 1020.8 |
| 20260507130521 | 56 | 24 | 5.0 | 9.0 | 0.00 | 0.15 | 0.00 | 98 | 1020.8 |
| 20260507125523 | 56 | 25 | 4.0 | 6.0 | 0.00 | 0.15 | 0.00 | 97 | 1020.6 |
| 20260507125513 | 56 | 359 | 4.0 | 7.0 | 0.00 | 0.15 | 0.00 | 97 | 1020.4 |
| 20260507124525 | 56 | 30 | 7.0 | 10.0 | 0.00 | 0.15 | 0.00 | 97 | 1020.0 |
| 20260507123528 | 57 | 24 | 6.0 | 8.0 | 0.00 | 0.15 | 0.00 | 97 | 1020.0 |
| 20260507122529 | 57 | 34 | 4.0 | 11.0 | 0.00 | 0.15 | 0.00 | 97 | 1019.7 |
| 20260507122513 | 56 | 16 | 5.0 | 9.0 | 0.00 | 0.15 | 0.00 | 97 | 1019.1 |
| 20260507121552 | 57 | 37 | 7.0 | 10.0 | 0.00 | 0.15 | 0.00 | 96 | 1019.3 |
| 20260507120516 | 57 | 31 | 6.0 | 10.0 | 0.00 | 0.15 | 0.00 | 96 | 1019.4 |
| 20260507115518 | 57 | 9 | 7.0 | 13.0 | 0.00 | 0.15 | 0.00 | 96 | 1019.5 |
| 20260507115513 | 57 | 18 | 8.0 | 14.0 | 0.00 | 0.15 | 0.00 | 95 | 1019.4 |
| 20260507114520 | 57 | 21 | 7.0 | 12.0 | 0.00 | 0.15 | 0.00 | 95 | 1019.5 |
| 20260507113524 | 58 | 20 | 7.0 | 12.0 | 0.00 | 0.15 | 0.00 | 95 | 1019.3 |
| 20260507112518 | 58 | 20 | 5.0 | 12.0 | 0.00 | 0.15 | 0.00 | 95 | 1019.2 |
| 20260507112513 | 57 | 351 | 4.0 | 7.0 | 0.00 | 0.15 | 0.00 | 94 | 1018.8 |
| 20260507111527 | 58 | 16 | 5.0 | 8.0 | 0.00 | 0.15 | 0.00 | 94 | 1019.1 |
| 20260507110529 | 58 | 19 | 6.0 | 9.0 | 0.00 | 0.15 | 0.00 | 94 | 1019.0 |
| 20260507105551 | 58 | 42 | 5.0 | 10.0 | 0.00 | 0.15 | 0.00 | 93 | 1018.7 |
| 20260507105513 | 58 | 13 | 5.0 | 9.0 | 0.00 | 0.15 | 0.00 | 93 | 1018.3 |
| 20260507104515 | 59 | 15 | 6.0 | 8.0 | 0.00 | 0.15 | 0.00 | 93 | 1018.7 |
| 20260507103517 | 59 | 5 | 3.0 | 5.0 | 0.00 | 0.15 | 0.00 | 93 | 1018.7 |
| 20260507102540 | 59 | 355 | 4.0 | 7.0 | 0.00 | 0.15 | 0.00 | 93 | 1018.7 |
| 20260507102513 | 58 | 21 | 4.0 | 8.0 | 0.00 | 0.15 | 0.00 | 93 | 1018.1 |
| 20260507101522 | 59 | 26 | 4.0 | 6.0 | 0.00 | 0.15 | 0.00 | 93 | 1018.5 |
| 20260507100524 | 59 | 34 | 3.0 | 5.0 | 0.00 | 0.15 | 0.00 | 93 | 1018.7 |
| 20260507095527 | 59 | 20 | 4.0 | 7.0 | 0.00 | 0.15 | 0.00 | 93 | 1018.5 |
| 20260507095513 | 59 | 13 | 4.0 | 5.0 | 0.00 | 0.15 | 0.00 | 94 | 1018.1 |
| 20260507094529 | 59 | 348 | 3.0 | 6.0 | 0.00 | 0.15 | 0.00 | 94 | 1018.5 |
| 20260507093531 | 59 | 34 | 2.0 | 3.0 | 0.00 | 0.15 | 0.00 | 94 | 1018.3 |
| 20260507092516 | 60 | 28 | 3.0 | 5.0 | 0.00 | 0.15 | 0.00 | 94 | 1018.3 |
| 20260507092513 | 59 | 13 | 4.0 | 6.0 | 0.00 | 0.15 | 0.00 | 94 | 1017.9 |
| 20260507091518 | 60 | 29 | 4.0 | 5.0 | 0.00 | 0.15 | 0.00 | 94 | 1018.3 |
| 20260507090540 | 60 | 48 | 1.0 | 3.0 | 0.00 | 0.15 | 0.00 | 95 | 1018.3 |
| 20260507085522 | 60 | 11 | 2.0 | 5.0 | 0.00 | 0.15 | 0.00 | 95 | 1018.5 |
| 20260507085513 | 59 | 11 | 3.0 | 5.0 | 0.00 | 0.15 | 0.00 | 95 | 1018.1 |
| 20260507084519 | 60 | 81 | 2.0 | 4.0 | 0.00 | 0.15 | 0.00 | 95 | 1018.5 |
| 20260507083527 | 60 | 32 | 2.0 | 5.0 | 0.00 | 0.15 | 0.00 | 96 | 1018.5 |
| 20260507082529 | 60 | 11 | 2.0 | 4.0 | 0.00 | 0.15 | 0.00 | 97 | 1018.4 |
| 20260507082513 | 59 | 112 | 0.0 | 2.0 | 0.00 | 0.15 | 0.00 | 97 | 1017.9 |
| 20260507081531 | 59 | 33 | 1.0 | 3.0 | 0.00 | 0.15 | 0.00 | 97 | 1018.3 |
| 20260507080515 | 59 | 19 | 2.0 | 3.0 | 0.00 | 0.15 | 0.00 | 97 | 1018.5 |
| 20260507075518 | 59 | 42 | 2.0 | 3.0 | 0.00 | 0.15 | 0.00 | 98 | 1018.5 |
| 20260507075513 | 58 | 41 | 2.0 | 3.0 | 0.00 | 0.15 | 0.00 | 98 | 1018.1 |
| 20260507074520 | 59 | 77 | 1.0 | 2.0 | 0.00 | 0.15 | 0.00 | 98 | 1018.7 |
| 20260507073523 | 59 | 0.0 | 0.0 | 0.00 | 0.15 | 0.00 | 98 | 1018.7 | |
| 20260507072525 | 59 | 37 | 2.0 | 4.0 | 0.00 | 0.15 | 0.00 | 98 | 1018.6 |
| 20260507072513 | 58 | 28 | 1.0 | 3.0 | 0.00 | 0.15 | 0.00 | 98 | 1018.1 |
| 20260507071527 | 59 | 23 | 1.0 | 2.0 | 0.00 | 0.15 | 0.00 | 98 | 1018.5 |
| 20260507070529 | 59 | 87 | 2.0 | 5.0 | 0.00 | 0.15 | 0.00 | 98 | 1018.2 |
| 20260507065531 | 59 | 90 | 0.0 | 2.0 | 0.00 | 0.15 | 0.00 | 97 | 1017.9 |
| 20260507065513 | 59 | 45 | 1.0 | 2.0 | 0.00 | 0.15 | 0.00 | 97 | 1017.5 |
| 20260507064536 | 59 | 64 | 0.0 | 2.0 | 0.00 | 0.15 | 0.00 | 97 | 1018.0 |
| 20260507063518 | 59 | 35 | 1.0 | 2.0 | 0.00 | 0.15 | 0.00 | 97 | 1018.0 |
| 20260507062521 | 60 | 333 | 0.0 | 2.0 | 0.00 | 0.15 | 0.00 | 96 | 1018.0 |
| 20260507062513 | 59 | 0 | 0.0 | 0.0 | 0.00 | 0.15 | 0.00 | 96 | 1017.7 |
| 20260507061523 | 60 | 0.0 | 1.0 | 0.00 | 0.15 | 0.00 | 95 | 1018.1 | |
| 20260507060519 | 60 | 10 | 0.0 | 2.0 | 0.00 | 0.15 | 0.00 | 95 | 1018.0 |
| 20260507055515 | 60 | 129 | 2.0 | 4.0 | 0.00 | 0.15 | 0.00 | 96 | 1017.5 |
| 20260507054530 | 60 | 9 | 2.0 | 4.0 | 0.00 | 0.15 | 0.00 | 95 | 1017.6 |
| 20260507053532 | 60 | 0.0 | 0.0 | 0.00 | 0.15 | 0.00 | 95 | 1017.5 | |
| 20260507052516 | 60 | 30 | 2.0 | 6.0 | 0.00 | 0.15 | 0.00 | 95 | 1017.5 |
| 20260507052513 | 60 | 1 | 2.0 | 4.0 | 0.00 | 0.15 | 0.00 | 95 | 1016.9 |
| 20260507051518 | 60 | 29 | 3.0 | 5.0 | 0.00 | 0.15 | 0.00 | 95 | 1017.5 |
| 20260507050520 | 60 | 28 | 4.0 | 6.0 | 0.00 | 0.15 | 0.00 | 96 | 1017.6 |
| 20260507045523 | 60 | 31 | 2.0 | 3.0 | 0.00 | 0.15 | 0.15 | 96 | 1017.8 |
| 20260507045513 | 60 | 46 | 3.0 | 6.0 | 0.00 | 0.15 | 0.15 | 96 | 1017.3 |
| 20260507044525 | 60 | 24 | 4.0 | 8.0 | 0.00 | 0.15 | 0.15 | 96 | 1017.9 |
| 20260507043528 | 60 | 18 | 3.0 | 5.0 | 0.00 | 0.15 | 0.15 | 96 | 1017.8 |
| 20260507042530 | 60 | 26 | 4.0 | 5.0 | 0.00 | 0.15 | 0.15 | 97 | 1017.8 |
| 20260507042513 | 60 | 26 | 3.0 | 7.0 | 0.00 | 0.15 | 0.15 | 97 | 1017.3 |
| 20260507041532 | 60 | 45 | 5.0 | 8.0 | 0.00 | 0.15 | 0.15 | 97 | 1017.8 |
| 20260507040517 | 60 | 345 | 0.0 | 2.0 | 0.00 | 0.15 | 0.15 | 97 | 1017.8 |
| 20260507035519 | 60 | 20 | 5.0 | 6.0 | 0.00 | 0.15 | 0.15 | 97 | 1017.5 |
| 20260507035513 | 60 | 10 | 4.0 | 7.0 | 0.00 | 0.15 | 0.15 | 97 | 1016.9 |
| 20260507034521 | 60 | 3 | 4.0 | 5.0 | 0.00 | 0.15 | 0.15 | 97 | 1017.5 |
| 20260507033524 | 60 | 19 | 5.0 | 9.0 | 0.00 | 0.15 | 0.15 | 97 | 1017.3 |
| 20260507032520 | 60 | 19 | 4.0 | 7.0 | 0.00 | 0.15 | 0.15 | 96 | 1017.3 |
| 20260507032513 | 60 | 25 | 4.0 | 8.0 | 0.00 | 0.15 | 0.15 | 96 | 1016.7 |
| 20260507031516 | 60 | 23 | 7.0 | 9.0 | 0.00 | 0.15 | 0.15 | 96 | 1017.3 |
| 20260507030530 | 60 | 45 | 4.0 | 5.0 | 0.00 | 0.15 | 0.15 | 95 | 1017.3 |
| 20260507025532 | 60 | 27 | 3.0 | 4.0 | 0.00 | 0.15 | 0.15 | 95 | 1017.1 |
| 20260507025513 | 60 | 26 | 2.0 | 4.0 | 0.00 | 0.15 | 0.15 | 95 | 1016.5 |
| 20260507024517 | 60 | 35 | 2.0 | 4.0 | 0.00 | 0.15 | 0.15 | 95 | 1017.2 |
| 20260507023519 | 60 | 62 | 2.0 | 4.0 | 0.00 | 0.15 | 0.15 | 95 | 1016.6 |
| 20260507022521 | 60 | 73 | 3.0 | 4.0 | 0.00 | 0.15 | 0.15 | 95 | 1016.6 |
| 20260507022513 | 60 | 32 | 4.0 | 6.0 | 0.00 | 0.15 | 0.15 | 95 | 1016.0 |
| 20260507021523 | 60 | 31 | 3.0 | 5.0 | 0.00 | 0.15 | 0.15 | 95 | 1016.6 |
| 20260507020546 | 61 | 14 | 1.0 | 3.0 | 0.00 | 0.15 | 0.15 | 94 | 1016.6 |
| 20260507015528 | 61 | 34 | 4.0 | 5.0 | 0.00 | 0.15 | 0.15 | 94 | 1016.4 |
| 20260507015513 | 60 | 17 | 4.0 | 6.0 | 0.00 | 0.15 | 0.15 | 94 | 1015.7 |
| 20260507014550 | 61 | 26 | 3.0 | 5.0 | 0.00 | 0.15 | 0.15 | 94 | 1016.4 |
| 20260507013553 | 61 | 40 | 2.0 | 4.0 | 0.00 | 0.15 | 0.15 | 94 | 1016.2 |
| 20260507012516 | 61 | 22 | 2.0 | 4.0 | 0.00 | 0.15 | 0.15 | 93 | 1016.0 |
| 20260507012513 | 61 | 354 | 2.0 | 5.0 | 0.00 | 0.15 | 0.15 | 93 | 1015.0 |
| 20260507011519 | 61 | 30 | 4.0 | 5.0 | 0.00 | 0.15 | 0.15 | 93 | 1015.7 |
| 20260507010521 | 61 | 27 | 2.0 | 5.0 | 0.00 | 0.15 | 0.15 | 92 | 1015.7 |
| 20260507005523 | 62 | 32 | 2.0 | 3.0 | 0.00 | 0.15 | 0.15 | 92 | 1015.5 |
| 20260507005513 | 61 | 6 | 2.0 | 3.0 | 0.00 | 0.15 | 0.15 | 92 | 1014.7 |
| 20260507004520 | 62 | 351 | 4.0 | 6.0 | 0.00 | 0.15 | 0.15 | 92 | 1015.5 |
| 20260507003536 | 62 | 35 | 3.0 | 4.0 | 0.00 | 0.15 | 0.15 | 92 | 1015.3 |
| 20260507002550 | 62 | 4 | 2.0 | 4.0 | 0.00 | 0.15 | 0.15 | 92 | 1015.2 |
| 20260507002513 | 61 | 15 | 2.0 | 5.0 | 0.00 | 0.15 | 0.15 | 91 | 1014.6 |
| 20260507001532 | 62 | 346 | 4.0 | 6.0 | 0.00 | 0.15 | 0.15 | 91 | 1015.3 |
| 20260507000516 | 62 | 12 | 4.0 | 6.0 | 0.00 | 0.15 | 0.15 | 91 | 1015.2 |
| 20260506235519 | 62 | 353 | 4.0 | 5.0 | 0.00 | 0.15 | 0.15 | 91 | 1015.1 |
| 20260506235513 | 62 | 349 | 4.0 | 5.0 | 0.00 | 0.15 | 0.15 | 90 | 1014.2 |
| 20260506234521 | 62 | 7 | 3.0 | 6.0 | 0.00 | 0.15 | 0.15 | 90 | 1015.0 |
| 20260506233523 | 62 | 346 | 4.0 | 6.0 | 0.00 | 0.15 | 0.15 | 90 | 1014.6 |
| 20260506232525 | 63 | 57 | 3.0 | 5.0 | 0.00 | 0.15 | 0.15 | 90 | 1014.7 |
| 20260506232513 | 62 | 6 | 4.0 | 7.0 | 0.00 | 0.15 | 0.15 | 90 | 1014.2 |
| 20260506231528 | 63 | 26 | 3.0 | 7.0 | 0.00 | 0.15 | 0.15 | 90 | 1015.1 |
| 20260506230549 | 63 | 2 | 4.0 | 7.0 | 0.00 | 0.15 | 0.15 | 90 | 1015.1 |
| 20260506225552 | 63 | 14 | 4.0 | 9.0 | 0.00 | 0.15 | 0.15 | 89 | 1014.9 |
| 20260506225513 | 63 | 19 | 4.0 | 7.0 | 0.00 | 0.15 | 0.15 | 89 | 1013.9 |
| 20260506224516 | 64 | 4 | 3.0 | 8.0 | 0.00 | 0.15 | 0.15 | 89 | 1014.7 |
| 20260506223538 | 64 | 348 | 6.0 | 10.0 | 0.00 | 0.15 | 0.15 | 88 | 1014.5 |
| 20260506222528 | 65 | 9 | 5.0 | 9.0 | 0.00 | 0.15 | 0.15 | 88 | 1014.5 |
| 20260506222513 | 64 | 42 | 5.0 | 8.0 | 0.00 | 0.15 | 0.15 | 87 | 1013.4 |
| 20260506221517 | 65 | 31 | 5.0 | 7.0 | 0.00 | 0.15 | 0.15 | 87 | 1014.5 |
| 20260506220519 | 66 | 16 | 6.0 | 9.0 | 0.00 | 0.15 | 0.15 | 86 | 1014.7 |
| 20260506215522 | 66 | 356 | 5.0 | 7.0 | 0.00 | 0.15 | 0.15 | 86 | 1014.5 |
| 20260506215513 | 65 | 11 | 4.0 | 8.0 | 0.00 | 0.15 | 0.15 | 86 | 1013.3 |
| 20260506214523 | 66 | 18 | 6.0 | 9.0 | 0.00 | 0.15 | 0.15 | 85 | 1014.7 |
| 20260506213525 | 66 | 20 | 6.0 | 10.0 | 0.00 | 0.15 | 0.15 | 85 | 1014.5 |
| 20260506212528 | 67 | 24 | 6.0 | 11.0 | 0.00 | 0.15 | 0.15 | 84 | 1014.5 |
| 20260506212513 | 67 | 351 | 6.0 | 10.0 | 0.00 | 0.15 | 0.15 | 82 | 1013.1 |
| 20260506211532 | 69 | 360 | 6.0 | 11.0 | 0.00 | 0.15 | 0.15 | 82 | 1014.5 |
| 20260506210712 | 69 | 15 | 5.0 | 8.0 | 0.00 | 0.15 | 0.15 | 82 | 1014.7 |
| 20260506205516 | 70 | 24 | 7.0 | 10.0 | 0.00 | 0.15 | 0.15 | 81 | 1014.8 |
| 20260506205513 | 70 | 17 | 6.0 | 10.0 | 0.00 | 0.15 | 0.15 | 80 | 1013.1 |
| 20260506204518 | 70 | 5 | 8.0 | 10.0 | 0.00 | 0.15 | 0.15 | 80 | 1014.7 |
| 20260506203520 | 71 | 5 | 5.0 | 7.0 | 0.00 | 0.15 | 0.15 | 80 | 1014.7 |
| 20260506202523 | 71 | 35 | 5.0 | 7.0 | 0.00 | 0.15 | 0.15 | 80 | 1014.7 |
| 20260506202513 | 69 | 12 | 5.0 | 9.0 | 0.00 | 0.15 | 0.15 | 81 | 1013.2 |
| 20260506201524 | 69 | 42 | 5.0 | 7.0 | 0.00 | 0.15 | 0.15 | 82 | 1014.9 |
| 20260506200526 | 71 | 3 | 7.0 | 11.0 | 0.00 | 0.15 | 0.15 | 80 | 1015.0 |
| 20260506195709 | 72 | 357 | 5.0 | 8.0 | 0.00 | 0.15 | 0.15 | 80 | 1014.9 |
| 20260506195513 | 72 | 29 | 4.0 | 7.0 | 0.00 | 0.15 | 0.15 | 79 | 1012.9 |
| 20260506194525 | 72 | 10 | 5.0 | 11.0 | 0.00 | 0.15 | 0.15 | 80 | 1014.8 |
| 20260506193521 | 75 | 323 | 4.0 | 8.0 | 0.00 | 0.15 | 0.15 | 77 | 1014.9 |
| 20260506192517 | 73 | 347 | 5.0 | 11.0 | 0.00 | 0.15 | 0.15 | 80 | 1014.9 |
| 20260506192513 | 73 | 32 | 4.0 | 8.0 | 0.00 | 0.15 | 0.15 | 79 | 1012.9 |
| 20260506191531 | 72 | 356 | 6.0 | 11.0 | 0.00 | 0.15 | 0.15 | 81 | 1015.0 |
| 20260506190536 | 74 | 17 | 6.0 | 10.0 | 0.00 | 0.15 | 0.15 | 80 | 1014.9 |
| 20260506185518 | 74 | 46 | 5.0 | 10.0 | 0.00 | 0.15 | 0.15 | 80 | 1015.0 |
| 20260506185513 | 74 | 4 | 5.0 | 10.0 | 0.00 | 0.15 | 0.15 | 78 | 1012.6 |
| 20260506184520 | 76 | 27 | 8.0 | 10.0 | 0.00 | 0.15 | 0.15 | 78 | 1014.8 |
| 20260506183522 | 78 | 28 | 8.0 | 11.0 | 0.00 | 0.15 | 0.15 | 76 | 1014.8 |
| 20260506182525 | 79 | 354 | 3.0 | 5.0 | 0.00 | 0.15 | 0.15 | 78 | 1014.7 |
| 20260506182513 | 79 | 15 | 4.0 | 8.0 | 0.00 | 0.15 | 0.15 | 77 | 1012.0 |
| 20260506181527 | 80 | 338 | 3.0 | 7.0 | 0.00 | 0.15 | 0.15 | 77 | 1014.7 |
| 20260506180529 | 80 | 41 | 3.0 | 6.0 | 0.00 | 0.15 | 0.15 | 76 | 1014.7 |
| 20260506175551 | 79 | 4 | 5.0 | 7.0 | 0.00 | 0.15 | 0.15 | 79 | 1014.9 |
| 20260506175513 | 78 | 17 | 5.0 | 7.0 | 0.00 | 0.15 | 0.15 | 77 | 1012.2 |
| 20260506174515 | 78 | 21 | 4.0 | 7.0 | 0.00 | 0.15 | 0.15 | 80 | 1015.1 |
| 20260506173517 | 74 | 22 | 4.0 | 6.0 | 0.00 | 0.15 | 0.15 | 85 | 1015.1 |
| 20260506172520 | 72 | 23 | 1.0 | 4.0 | 0.00 | 0.15 | 0.15 | 90 | 1015.1 |
| 20260506172513 | 71 | 66 | 2.0 | 3.0 | 0.00 | 0.15 | 0.15 | 90 | 1013.3 |
| 20260506171522 | 72 | 75 | 2.0 | 3.0 | 0.00 | 0.15 | 0.15 | 89 | 1015.2 |
| 20260506170525 | 72 | 270 | 2.0 | 4.0 | 0.00 | 0.15 | 0.15 | 91 | 1014.9 |
| 20260506165521 | 72 | 36 | 3.0 | 5.0 | 0.00 | 0.15 | 0.15 | 89 | 1014.7 |
| 20260506165513 | 71 | 29 | 0.0 | 2.0 | 0.00 | 0.15 | 0.15 | 89 | 1012.8 |
| 20260506164517 | 71 | 49 | 2.0 | 4.0 | 0.00 | 0.15 | 0.15 | 90 | 1014.7 |
| 20260506163531 | 70 | 14 | 2.0 | 4.0 | 0.00 | 0.15 | 0.15 | 92 | 1014.5 |
| 20260506162515 | 68 | 133 | 1.0 | 4.0 | 0.01 | 0.15 | 0.15 | 95 | 1014.5 |
| 20260506162513 | 67 | 350 | 1.0 | 3.0 | 0.00 | 0.15 | 0.15 | 94 | 1013.0 |
| 20260506161517 | 68 | 10 | 3.0 | 5.0 | 0.04 | 0.15 | 0.15 | 94 | 1014.5 |
| 20260506160519 | 68 | 29 | 4.0 | 6.0 | 0.12 | 0.15 | 0.15 | 95 | 1014.5 |
| 20260506155521 | 68 | 5 | 4.0 | 6.0 | 0.13 | 0.15 | 0.15 | 95 | 1014.5 |
| 20260506155513 | 67 | 18 | 3.0 | 5.0 | 0.13 | 0.15 | 0.15 | 96 | 1013.1 |
| 20260506154524 | 67 | 11 | 5.0 | 9.0 | 0.14 | 0.15 | 0.15 | 95 | 1014.3 |
| 20260506153526 | 68 | 346 | 3.0 | 8.0 | 0.14 | 0.15 | 0.15 | 97 | 1014.4 |
| 20260506152528 | 68 | 354 | 3.0 | 5.0 | 0.13 | 0.14 | 0.14 | 98 | 1014.5 |
| 20260506152513 | 67 | 333 | 2.0 | 4.0 | 0.09 | 0.11 | 0.11 | 98 | 1013.0 |